User: anonymous
Location: Unspecified
(0.0000°N, 0.0000°E)
Time: 10:15:54
(UTC+02:00)
Language:

Cosmos 1263 Rocket - Orbit

View from above orbital plane
View from above orbital plane
View from above satellite
View from above satellite

Ground track
Ground track

The orbit data is extracted from the following two-line orbital elements,

1 12389U 81033B   14109.20308722  .00046263  00000-0  76624-3 0  9457
2 12389 082.8763 164.2592 0223121 325.5757 088.9638 15.28716935700706
Epoch (UTC): 19 April 2014 04:52:26
Eccentricity: 0.0223121
inclination: 82.8763°
perigee height: 326 km
apogee height: 632 km
right ascension of ascending node: 164.2592°
argument of perigee: 325.5757°
revolutions per day: 15.28716935
mean anomaly at epoch: 88.9638°
orbit number at epoch: 70070

The dashed part of the orbit path shows where the satellite is in the earth's shadow,  

DLR